Location: *
(58.7167°N, 26.1833°E)
Time: 11:13:34
(UTC+00:00)

CARTOSAT-1 - Pass Details

Date: 25 August 2019
Orbit: 616 x 619 km, 97.8° (Epoch: 21 October)

Event Time Altitude Azimuth Distance (km) Brightness Sun altitude
Exits shadow 20:09:10 19° 191° (SSW) 1,489 5.1 -15.9°
Maximum altitude 20:12:02 49° 260° (W) 810 4.3 -16.2°
Drops below altitude 10° 20:16:16 10° 336° (NNW) 2,001 7.5 -16.4°
Sets 20:18:33 0° 342° (NNW) 2,912 8.6 -16.6°
